STARLINK-4035, 52690

Orbit data source: Space-Track

STARLINK-4035, 52690 is a payload satellite owned by SpaceX/Seattle (US) in LEO that was launched on Wed, 18 May 2022 UTC via an FALCON 9 launch vehicle from the Air Force Eastern Test Range (AFETR). Payload-class satellites include a variety of spacecraft equipped with specific instruments for various scientific and technological missions. These include communications satellites like Starlink; space stations such as the ISS; scientific satellites like the Hubble; Earth observation satellites from companies like Planet Labs, Umbra, and HawkEye 360; GPS; miniature CubeSats for education and research; and military/defense satellites.

Loading next visibility...
Identifier
52690, 2022-053AL
Orbit
LEO
Country
Flag of USUS
Related business
Manufacturer
SpaceX/Seattle
Mission
Operational Commercial Communications
Bus & Motor
STARLINK, Unknown motor
Mass
297 kg wet, ~275 kg dry
Launch date (UTC)
2022-05-18 (4 years ago)
Launch vehicle
FALCON 9
Launch site
Air Force Eastern Test Range (AFETR)
Object type
Payload
Rocket body
Debris
Shape & HBR
Box + 1 Pan, 10.1 m
Radar Cross Section
13.562 m², Large (>1 m²)

Expand to show TLE details & history
Last TLE update: 2 days ago

TLE from 2 days ago
0 STARLINK-4035
1 52690U 22053AL  26171.33849559  .00000198  00000-0  30560-4 0  9993
2 52690  53.1609  43.1973 0001291  87.4426 272.6713 15.08834092226614
Epoch: 2026-06-20T08:07Z
TLE epoch observation values (Epoch: 2026-06-20T08:07:26.018Z)
Latitude
-0.00006°
Longitude
12.7843°
Altitude
540.611 km
Speed
7.593 km/s
True Right ascension
02h 52m 47s
True Declination
0° 00' 00"
Sunlit
Object was in daylight at epoch
Visualization orbit readout
Latitude
Unknown
Longitude
Unknown
Altitude
Unknown
Speed
Unknown
Apparent Right ascension
Unknown
Apparent Declination
Unknown
Sunlit
N/A
Visualization observer readout
Local Sidereal Time
21:29:18
Azimuth
Unknown
Elevation
Unknown
Doppler factor
Unknown
Orbital elements
Apogee altitude
540.909 km
Perigee altitude
539.122 km
Semi-major axis
6,918.152 km
Eccentricity
0.00013
Inclination
53.1609°
RAAN
43.1973°
Arg. of periapsis
87.4426°
True anomaly
272.65652°
Mean anomaly
272.6713°
Eccentric anomaly
272.66391°
Mean motion
3.77188 °/min
Orbital period
95.44 mins
BSTAR
0.00003056
Loading maneuver chart data...
Computing Atmospheric mass density...
Loading historical data...
Loading historical data...
Loading historical data...
Loading historical data...
Loading historical data...
Loading historical data...
Loading historical data...

Documentation

Showing up to 5 results
|